User: anonymous   Login
Location: Fours
(44.3167°N, 6.7000°E)
Time: 03:39:06
(UTC+00:00)
Language:

Cosmos 1356 - Orbit

View from above orbital plane
View from above orbital plane
View from above satellite
View from above satellite

Ground track
Ground track

The orbit data is extracted from the following two-line orbital elements,

1 13153U 82039A   22026.66399035  .00009899  00000-0  21128-3 0  9990
2 13153  81.0905   0.5098 0003492  49.9138 310.2412 15.44726073178763
Epoch (UTC): 26 January 2022 15:56:08
Eccentricity: 0.0003492
inclination: 81.0905°
perigee height: 430 km
apogee height: 434 km
right ascension of ascending node: 0.5098°
argument of perigee: 49.9138°
revolutions per day: 15.44726073
mean anomaly at epoch: 310.2412°
orbit number at epoch: 17876

The dashed part of the orbit path shows where the satellite is in the earth's shadow,  

DLR